Year,Month,Day,Hour,Minute,Value (Times are PST for temperature in C)
2020,05,09,12,40,24.80
2020,05,09,12,41,24.80
2020,05,09,12,42,24.90
2020,05,09,12,43,24.90
2020,05,09,12,44,24.90
2020,05,09,12,45,24.90
2020,05,09,12,46,25.00
2020,05,09,12,47,25.00
2020,05,09,12,48,24.90
2020,05,09,12,49,24.90
2020,05,09,12,50,24.80
2020,05,09,12,51,24.80
2020,05,09,12,52,24.90
2020,05,09,12,53,25.00
2020,05,09,12,54,24.90
2020,05,09,12,55,24.90
2020,05,09,12,56,24.90
2020,05,09,12,57,24.90
2020,05,09,12,58,25.00
2020,05,09,12,59,24.90
2020,05,09,13,00,24.90
2020,05,09,13,01,24.80
2020,05,09,13,02,24.80
2020,05,09,13,03,24.80
2020,05,09,13,04,24.80
2020,05,09,13,05,24.80
2020,05,09,13,06,24.80
2020,05,09,13,07,24.80
2020,05,09,13,08,24.80
2020,05,09,13,09,24.80
2020,05,09,13,10,24.80
2020,05,09,13,11,24.90
2020,05,09,13,12,25.00
2020,05,09,13,13,25.00
2020,05,09,13,14,24.90
2020,05,09,13,15,24.90
2020,05,09,13,16,24.80
2020,05,09,13,17,24.80
2020,05,09,13,18,24.80
2020,05,09,13,19,24.80
2020,05,09,13,20,24.80
2020,05,09,13,21,24.80
2020,05,09,13,22,24.90
2020,05,09,13,23,24.90
2020,05,09,13,24,25.00
2020,05,09,13,25,25.00
2020,05,09,13,26,25.10
2020,05,09,13,27,25.20
2020,05,09,13,28,25.20
2020,05,09,13,29,25.30
2020,05,09,13,30,25.40
2020,05,09,13,31,25.40
2020,05,09,13,32,25.50
2020,05,09,13,33,25.60
2020,05,09,13,34,25.60
2020,05,09,13,35,25.50
2020,05,09,13,36,25.50
2020,05,09,13,37,25.60
2020,05,09,13,38,25.70
2020,05,09,13,39,25.70
2020,05,09,13,40,25.70
2020,05,09,13,41,25.70
2020,05,09,13,42,25.50
2020,05,09,13,43,25.40
2020,05,09,13,44,25.50
2020,05,09,13,45,25.50
2020,05,09,13,46,25.60
2020,05,09,13,47,25.70
2020,05,09,13,48,25.80
2020,05,09,13,49,25.80
2020,05,09,13,50,25.90
2020,05,09,13,51,25.90
2020,05,09,13,52,26.00
2020,05,09,13,53,26.10
2020,05,09,13,54,26.00
2020,05,09,13,55,26.00
2020,05,09,13,56,25.90
2020,05,09,13,57,25.90
2020,05,09,13,58,25.90
2020,05,09,13,59,25.90
2020,05,09,14,00,25.90
2020,05,09,14,01,25.90
2020,05,09,14,02,25.80
2020,05,09,14,03,25.70
2020,05,09,14,04,25.60
2020,05,09,14,05,25.60
2020,05,09,14,06,25.60
2020,05,09,14,07,25.60
2020,05,09,14,08,25.60
2020,05,09,14,09,25.60
2020,05,09,14,10,25.60
2020,05,09,14,11,25.70
2020,05,09,14,12,25.70
2020,05,09,14,13,25.70
2020,05,09,14,14,25.80
2020,05,09,14,15,25.90
2020,05,09,14,16,25.90
2020,05,09,14,17,26.00
2020,05,09,14,18,25.90
2020,05,09,14,19,25.90
2020,05,09,14,20,25.80
2020,05,09,14,21,25.80
2020,05,09,14,22,25.80
2020,05,09,14,23,25.80
2020,05,09,14,24,25.70
2020,05,09,14,25,25.70
2020,05,09,14,26,25.80
2020,05,09,14,27,25.90
2020,05,09,14,28,26.00
2020,05,09,14,29,26.10
2020,05,09,14,30,26.10
2020,05,09,14,31,26.00
2020,05,09,14,32,26.00
2020,05,09,14,33,26.00
2020,05,09,14,34,25.90
2020,05,09,14,35,25.90
2020,05,09,14,36,25.90
2020,05,09,14,37,26.00
2020,05,09,14,38,26.00
2020,05,09,14,39,25.90
2020,05,09,14,40,25.90
2020,05,09,14,41,26.00
2020,05,09,14,42,26.00
2020,05,09,14,43,26.00
2020,05,09,14,44,26.00
2020,05,09,14,45,26.00
2020,05,09,14,46,26.10
2020,05,09,14,47,26.10
2020,05,09,14,48,26.10
2020,05,09,14,49,26.10
2020,05,09,14,50,26.20
2020,05,09,14,51,26.20
2020,05,09,14,52,26.20
2020,05,09,14,53,26.20
2020,05,09,14,54,26.10
2020,05,09,14,55,25.90
2020,05,09,14,56,25.90
2020,05,09,14,57,25.80
2020,05,09,14,58,25.80
2020,05,09,14,59,25.80
2020,05,09,15,00,25.80
2020,05,09,15,01,25.80
2020,05,09,15,02,25.80
2020,05,09,15,03,25.80
2020,05,09,15,04,25.80
2020,05,09,15,05,25.80
2020,05,09,15,06,25.80
2020,05,09,15,07,25.90
2020,05,09,15,08,25.90
2020,05,09,15,09,25.90
2020,05,09,15,10,25.90
2020,05,09,15,11,25.90
2020,05,09,15,12,25.80
2020,05,09,15,13,25.80
2020,05,09,15,14,25.90
2020,05,09,15,15,25.90
2020,05,09,15,16,26.00
2020,05,09,15,17,26.10
2020,05,09,15,18,26.10
2020,05,09,15,19,26.10
2020,05,09,15,20,26.10
2020,05,09,15,21,26.00
2020,05,09,15,22,26.00
2020,05,09,15,23,25.90
2020,05,09,15,24,25.80
2020,05,09,15,25,25.80
2020,05,09,15,26,25.80
2020,05,09,15,27,25.80
2020,05,09,15,28,25.90
2020,05,09,15,29,25.90
2020,05,09,15,30,25.90
2020,05,09,15,31,25.90
2020,05,09,15,32,25.90
2020,05,09,15,33,25.90
2020,05,09,15,34,25.90
2020,05,09,15,35,26.00
2020,05,09,15,36,26.00
2020,05,09,15,37,26.00
2020,05,09,15,38,26.10
2020,05,09,15,39,26.10
2020,05,09,15,40,26.10
2020,05,09,15,41,26.10
2020,05,09,15,42,26.10
2020,05,09,15,43,26.00
2020,05,09,15,44,26.00
2020,05,09,15,45,25.90
2020,05,09,15,46,25.90
2020,05,09,15,47,26.00
2020,05,09,15,48,26.00
2020,05,09,15,49,26.00
2020,05,09,15,50,26.00
2020,05,09,15,51,26.10
2020,05,09,15,52,26.10
2020,05,09,15,53,26.20
2020,05,09,15,54,26.20
2020,05,09,15,55,26.20
2020,05,09,15,56,26.30
2020,05,09,15,57,26.40
2020,05,09,15,58,26.50
2020,05,09,15,59,26.60
2020,05,09,16,00,26.70
2020,05,09,16,01,26.80
2020,05,09,16,02,26.80
2020,05,09,16,03,26.90
2020,05,09,16,04,26.90
2020,05,09,16,05,27.00
2020,05,09,16,06,27.00
2020,05,09,16,07,26.90
2020,05,09,16,08,26.80
2020,05,09,16,09,26.80
2020,05,09,16,10,26.80
2020,05,09,16,11,26.80
2020,05,09,16,12,26.90
2020,05,09,16,13,26.90
2020,05,09,16,14,26.90
2020,05,09,16,15,26.80
2020,05,09,16,16,26.70
2020,05,09,16,17,26.60
2020,05,09,16,18,26.50
2020,05,09,16,19,26.50
2020,05,09,16,20,26.60
2020,05,09,16,21,26.60
2020,05,09,16,22,26.70
2020,05,09,16,23,26.70
2020,05,09,16,24,26.70
2020,05,09,16,25,26.60
2020,05,09,16,26,26.60
2020,05,09,16,27,26.60
2020,05,09,16,28,26.60
2020,05,09,16,29,26.60
2020,05,09,16,30,26.60
2020,05,09,16,31,26.70
2020,05,09,16,32,26.70
2020,05,09,16,33,26.60
2020,05,09,16,34,26.50
2020,05,09,16,35,26.40
2020,05,09,16,36,26.40
2020,05,09,16,37,26.40
2020,05,09,16,38,26.40
2020,05,09,16,39,26.40
2020,05,09,16,40,26.50
2020,05,09,16,41,26.60
2020,05,09,16,42,26.60
2020,05,09,16,43,26.60
2020,05,09,16,44,26.60
2020,05,09,16,45,26.70
2020,05,09,16,46,26.80
2020,05,09,16,47,26.80
2020,05,09,16,48,26.80
2020,05,09,16,49,26.80
2020,05,09,16,50,26.80
2020,05,09,16,51,26.80
2020,05,09,16,52,26.80
2020,05,09,16,53,26.80
2020,05,09,16,54,26.80
2020,05,09,16,55,26.80
2020,05,09,16,56,26.80
2020,05,09,16,57,26.70
2020,05,09,16,58,26.70
2020,05,09,16,59,26.60
2020,05,09,17,00,26.50
2020,05,09,17,01,26.50
2020,05,09,17,02,26.50
2020,05,09,17,03,26.50
2020,05,09,17,04,26.50
2020,05,09,17,05,26.60
2020,05,09,17,06,26.60
2020,05,09,17,07,26.60
2020,05,09,17,08,26.70
2020,05,09,17,09,26.70
2020,05,09,17,10,26.70
2020,05,09,17,11,26.70
2020,05,09,17,12,26.80
2020,05,09,17,13,26.70
2020,05,09,17,14,26.70
2020,05,09,17,15,26.60
2020,05,09,17,16,26.60
2020,05,09,17,17,26.60
2020,05,09,17,18,26.60
2020,05,09,17,19,26.50
2020,05,09,17,20,26.50
2020,05,09,17,21,26.50
2020,05,09,17,22,26.50
2020,05,09,17,23,26.50
2020,05,09,17,24,26.50
2020,05,09,17,25,26.50
2020,05,09,17,26,26.50
2020,05,09,17,27,26.60
2020,05,09,17,28,26.60
2020,05,09,17,29,26.60
2020,05,09,17,30,26.70
2020,05,09,17,31,26.60
2020,05,09,17,32,26.60
2020,05,09,17,33,26.70
2020,05,09,17,34,26.70
2020,05,09,17,35,26.70
2020,05,09,17,36,26.70
2020,05,09,17,37,26.70
2020,05,09,17,38,26.70
2020,05,09,17,39,26.80
2020,05,09,17,40,26.80
2020,05,09,17,41,26.80
2020,05,09,17,42,26.80
2020,05,09,17,43,26.80
2020,05,09,17,44,26.80
2020,05,09,17,45,26.80
2020,05,09,17,46,26.80
2020,05,09,17,47,26.90
2020,05,09,17,48,26.90
2020,05,09,17,49,26.90
2020,05,09,17,50,26.90
2020,05,09,17,51,26.90
2020,05,09,17,52,27.00
2020,05,09,17,53,27.00
2020,05,09,17,54,27.00
2020,05,09,17,55,27.10
2020,05,09,17,56,27.10
2020,05,09,17,57,27.00
2020,05,09,17,58,26.90
2020,05,09,17,59,26.80
2020,05,09,18,00,26.80
2020,05,09,18,01,26.70
2020,05,09,18,02,26.70
2020,05,09,18,03,26.70
2020,05,09,18,04,26.70
2020,05,09,18,05,26.70
2020,05,09,18,06,26.70
2020,05,09,18,07,26.80
2020,05,09,18,08,26.80
2020,05,09,18,09,26.80
2020,05,09,18,10,26.80
2020,05,09,18,11,26.80
2020,05,09,18,12,26.80
2020,05,09,18,13,26.90
2020,05,09,18,14,26.90
2020,05,09,18,15,26.90
2020,05,09,18,16,26.90
2020,05,09,18,17,26.90
2020,05,09,18,18,26.90
2020,05,09,18,19,27.00
2020,05,09,18,20,27.00
2020,05,09,18,21,27.10
2020,05,09,18,22,27.10
2020,05,09,18,23,27.10
2020,05,09,18,24,27.10
2020,05,09,18,25,27.10
2020,05,09,18,26,27.10
2020,05,09,18,27,27.10
2020,05,09,18,28,27.10
2020,05,09,18,29,27.00
2020,05,09,18,30,27.00
2020,05,09,18,31,26.90
2020,05,09,18,32,26.90
2020,05,09,18,33,26.90
2020,05,09,18,34,26.90
2020,05,09,18,35,26.90
2020,05,09,18,36,26.90
2020,05,09,18,37,26.90
2020,05,09,18,38,27.00
2020,05,09,18,39,27.00
2020,05,09,18,40,27.00
2020,05,09,18,41,26.90
2020,05,09,18,42,26.90
2020,05,09,18,43,26.90
2020,05,09,18,44,26.80
2020,05,09,18,45,26.80
2020,05,09,18,46,26.80
2020,05,09,18,47,26.80
2020,05,09,18,48,26.80
2020,05,09,18,49,26.80
2020,05,09,18,50,26.80
2020,05,09,18,51,26.80
2020,05,09,18,52,26.80
2020,05,09,18,53,26.80
2020,05,09,18,54,26.80
2020,05,09,18,55,26.70
2020,05,09,18,56,26.70
2020,05,09,18,57,26.70
2020,05,09,18,58,26.70
2020,05,09,18,59,26.70
2020,05,09,19,00,26.70
2020,05,09,19,01,26.70
2020,05,09,19,02,26.70
2020,05,09,19,03,26.70
2020,05,09,19,04,26.70
2020,05,09,19,05,26.70
2020,05,09,19,06,26.70
2020,05,09,19,07,26.70
2020,05,09,19,08,26.60
2020,05,09,19,09,26.60
2020,05,09,19,10,26.60
2020,05,09,19,11,26.60
2020,05,09,19,12,26.60
2020,05,09,19,13,26.60
2020,05,09,19,14,26.60
2020,05,09,19,15,26.60
2020,05,09,19,16,26.50
2020,05,09,19,17,26.40
2020,05,09,19,18,26.30
2020,05,09,19,19,26.20
2020,05,09,19,20,26.10
2020,05,09,19,21,26.00
2020,05,09,19,22,25.90
2020,05,09,19,23,25.80
2020,05,09,19,24,25.60
2020,05,09,19,25,25.50
2020,05,09,19,26,25.30
2020,05,09,19,27,25.30
2020,05,09,19,28,25.20
2020,05,09,19,29,25.10
2020,05,09,19,30,24.90
2020,05,09,19,31,24.80
2020,05,09,19,32,24.70
2020,05,09,19,33,24.50
2020,05,09,19,34,24.50
2020,05,09,19,35,24.50
2020,05,09,19,36,24.50
2020,05,09,19,37,24.30
2020,05,09,19,38,24.00
2020,05,09,19,39,23.90
2020,05,09,19,40,23.80
2020,05,09,19,41,23.60
2020,05,09,19,42,23.40
2020,05,09,19,43,23.30
2020,05,09,19,44,23.20
2020,05,09,19,45,23.00
2020,05,09,19,46,22.80
2020,05,09,19,47,22.70
2020,05,09,19,48,22.50
2020,05,09,19,49,22.40
2020,05,09,19,50,22.30
2020,05,09,19,51,22.10
2020,05,09,19,52,22.00
2020,05,09,19,53,21.80
2020,05,09,19,54,21.60
2020,05,09,19,55,21.40
2020,05,09,19,56,21.30
2020,05,09,19,57,21.10
2020,05,09,19,58,21.10
2020,05,09,19,59,21.00
2020,05,09,20,00,21.00
2020,05,09,20,01,20.90
2020,05,09,20,02,20.80
2020,05,09,20,03,20.70
2020,05,09,20,04,20.50
2020,05,09,20,05,20.40
2020,05,09,20,06,20.30
2020,05,09,20,07,20.20
2020,05,09,20,08,20.10
2020,05,09,20,09,20.10
2020,05,09,20,10,20.10
2020,05,09,20,11,20.00
2020,05,09,20,12,20.00
2020,05,09,20,13,19.90
2020,05,09,20,14,19.90
2020,05,09,20,15,19.90
2020,05,09,20,16,19.80
2020,05,09,20,17,19.80
2020,05,09,20,18,19.80
2020,05,09,20,19,19.80
2020,05,09,20,20,19.70
2020,05,09,20,21,19.60
2020,05,09,20,22,19.60
2020,05,09,20,23,19.50
2020,05,09,20,24,19.40
2020,05,09,20,25,19.40
2020,05,09,20,26,19.30
2020,05,09,20,27,19.30
2020,05,09,20,28,19.30
2020,05,09,20,29,19.30
2020,05,09,20,30,19.30
2020,05,09,20,31,19.30
2020,05,09,20,32,19.30
2020,05,09,20,33,19.30
2020,05,09,20,34,19.30
2020,05,09,20,35,19.30
2020,05,09,20,36,19.30
2020,05,09,20,37,19.30
